Terminal Aerodrome Forecast
Issued by NWS Wichita, KS

Home | Current Version | Previous Version | Graphics & Text | Print | Product List | Glossary On
Versions: 1 2 3 4 5 6 7 8 9 10 11 12 13 14 15 16 17 18
000
FTUS43 KICT 261200 AAA
TAFICT
TAF AMD
KICT 261200Z 2612/2712 36017KT P6SM OVC022
     FM261500 36013KT P6SM SCT025 BKN150
     FM261700 01013KT P6SM SCT150
     FM270000 02007KT P6SM BKN100=

USA.gov is the U.S. government's official web portal to all federal, state and local government web resources and services.